Cheraw, SC

7:54 AM EDT on June 27, 2017 (GMT -0400)
Cheraw

Weather History for KCQW - April, 2013

Change the Weather History Date:

Thursday, April 11, 2013

  Actual Average (KFLO) Record (KFLO)
Temperature  
Mean Temperature 70 °F -  
Max Temperature 82 °F 74 °F 92 °F (2001)
Min Temperature 57 °F 47 °F 32 °F (1996)
Cooling Degree Days 4    
Growing Degree Days 20 (Base 50)    
Moisture  
Dew Point 61 °F    
Average Humidity 75    
Maximum Humidity 100    
Minimum Humidity 42    
Precipitation  
Precipitation 0.00 in - - ()
Sea Level Pressure  
Sea Level Pressure 29.92 in    
Wind  
Wind Speed - (North)    
Max Wind Speed -    
Max Gust Speed -    
Visibility 9 miles    
Events      
Averages and records for this station are not official NWS values.
T = Trace of Precipitation, MM = Missing Value Source: NWS Daily Summary

Daily Weather History Graph

Daily Weather History Graph

Search for Another Location

Airport or City:

Trip Planner

Search our weather history database for the weather conditions in past years. The results will help you decide how hot, cold, wet, or windy it might be!

Date:

Astronomy

Apr. 11, 2013 Rise Set
Actual Time 6:53 AM EDT 7:49 PM EDT
Civil Twilight 6:27 AM EDT 8:14 PM EDT
Nautical Twilight 5:56 AM EDT 8:45 PM EDT
Astronomical Twilight 5:25 AM EDT 9:17 PM EDT
Moon 7:27 AM EDT (4/11) 9:17 PM EDT (4/11)
Length of Visible Light 13h 47m
Length of Day
12h 56m
New Moon, 2% of the Moon is Illuminated
Apr 11
New Moon
Apr 18
First Quarter
Apr 25
Full
May 2
Last Quarter
May 9
New

Hourly Weather History & Observations

Time (EDT) Temp. Heat Index Dew Point Humidity Pressure Visibility Wind Dir Wind Speed Gust Speed Precip Events Conditions
12:15 AM 66.2 °F - 55.4 °F 68% 30.00 in 10.0 mi North - - N/A   Clear
12:35 AM 64.4 °F - 57.2 °F 77% 30.00 in 10.0 mi North - - N/A   Clear
12:55 AM 64.4 °F - 57.2 °F 77% 30.00 in 10.0 mi North - - N/A   Clear
1:15 AM 64.4 °F - 57.2 °F 77% 30.01 in 10.0 mi North - - N/A   Clear
1:35 AM 62.6 °F - 59.0 °F 88% 30.01 in 10.0 mi North - - N/A   Clear
1:55 AM 62.6 °F - 59.0 °F 88% 30.00 in 10.0 mi North - - N/A   Clear
2:15 AM 62.6 °F - 59.0 °F 88% 30.00 in 10.0 mi North - - N/A   Clear
2:35 AM 62.6 °F - 59.0 °F 88% 29.99 in 10.0 mi North - - N/A   Clear
2:55 AM 60.8 °F - 59.0 °F 94% 29.99 in 10.0 mi North - - N/A   Clear
3:15 AM 59.0 °F - 59.0 °F 100% 29.99 in 10.0 mi North - - N/A   Clear
3:35 AM 59.0 °F - 59.0 °F 100% 29.98 in 10.0 mi North - - N/A   Clear
3:55 AM 59.0 °F - 59.0 °F 100% 29.99 in 10.0 mi North - - N/A   Clear
4:15 AM 59.0 °F - 59.0 °F 100% 29.98 in 10.0 mi North - - N/A   Clear
4:35 AM 59.0 °F - 59.0 °F 100% 29.99 in 10.0 mi North - - N/A   Clear
4:55 AM 59.0 °F - 59.0 °F 100% 29.99 in 10.0 mi North - - N/A   Clear
5:15 AM 59.0 °F - 59.0 °F 100% 29.98 in 10.0 mi North - - N/A   Clear
5:35 AM 59.0 °F - 59.0 °F 100% 29.98 in 10.0 mi North - - N/A   Clear
5:55 AM 59.0 °F - 59.0 °F 100% 29.98 in 10.0 mi North - - N/A   Clear
6:15 AM 59.0 °F - 59.0 °F 100% 29.98 in 8.0 mi North - - N/A   Clear
6:35 AM 57.2 °F - 57.2 °F 100% 29.99 in 8.0 mi North - - N/A   Clear
6:55 AM 57.2 °F - 57.2 °F 100% 29.99 in 4.0 mi North - - N/A   Clear
7:15 AM 57.2 °F - 57.2 °F 100% 30.00 in 5.0 mi North - - N/A   Clear
7:35 AM 59.0 °F - 59.0 °F 100% 30.01 in 3.0 mi North - - N/A   Mostly Cloudy
7:55 AM 59.0 °F - 59.0 °F 100% 30.01 in 3.0 mi North - - N/A   Overcast
8:15 AM 60.8 °F - 60.8 °F 100% 30.01 in 4.0 mi North - - N/A   Overcast
8:35 AM 62.6 °F - 62.6 °F 100% 30.01 in 5.0 mi North - - N/A   Overcast
8:55 AM 62.6 °F - 62.6 °F 100% 30.01 in 8.0 mi North - - N/A   Overcast
9:35 AM 66.2 °F - 64.4 °F 94% 30.01 in 10.0 mi North - - N/A   Overcast
9:55 AM 68.0 °F - 64.4 °F 88% 30.00 in 10.0 mi North - - N/A   Overcast
10:15 AM 71.6 °F - 64.4 °F 78% 30.00 in 10.0 mi North - - N/A   Overcast
10:35 AM 69.8 °F - 64.4 °F 83% 30.01 in 10.0 mi North - - N/A   Mostly Cloudy
11:15 AM 73.4 °F - 64.4 °F 73% 30.01 in 10.0 mi North - - N/A   Mostly Cloudy
11:35 AM 71.6 °F - 64.4 °F 78% 30.00 in 10.0 mi North - - N/A   Mostly Cloudy
11:55 AM 73.4 °F - 64.4 °F 73% 29.99 in 10.0 mi North - - N/A   Mostly Cloudy
12:15 PM 75.2 °F - 64.4 °F 69% 29.98 in 10.0 mi North - - N/A   Scattered Clouds
12:35 PM 77.0 °F - 62.6 °F 61% 29.97 in 10.0 mi North - - N/A   Scattered Clouds
12:55 PM 77.0 °F - 60.8 °F 57% 29.96 in 10.0 mi North - - N/A   Mostly Cloudy
1:15 PM 78.8 °F - 59.0 °F 51% 29.95 in 10.0 mi North - - N/A   Mostly Cloudy
1:35 PM 78.8 °F - 59.0 °F 51% 29.94 in 10.0 mi North - - N/A   Mostly Cloudy
1:55 PM 77.0 °F - 59.0 °F 54% 29.93 in 10.0 mi North - - N/A   Mostly Cloudy
2:15 PM 80.6 °F 81.1 °F 59.0 °F 48% 29.92 in 10.0 mi North - - N/A   Mostly Cloudy
2:35 PM 80.6 °F 81.1 °F 59.0 °F 48% 29.91 in 10.0 mi North - - N/A   Mostly Cloudy
2:55 PM 80.6 °F 81.1 °F 59.0 °F 48% 29.90 in 10.0 mi North - - N/A   Scattered Clouds
3:15 PM 80.6 °F 81.1 °F 59.0 °F 48% 29.89 in 10.0 mi North - - N/A   Scattered Clouds
3:35 PM 80.6 °F 81.1 °F 59.0 °F 48% 29.88 in 10.0 mi North - - N/A   Scattered Clouds
3:55 PM 82.4 °F 82.0 °F 57.2 °F 42% 29.86 in 10.0 mi North - - N/A   Scattered Clouds
4:15 PM 82.4 °F 82.5 °F 59.0 °F 45% 29.85 in 10.0 mi North - - N/A   Partly Cloudy
4:35 PM 82.4 °F 82.5 °F 59.0 °F 45% 29.84 in 10.0 mi North - - N/A   Partly Cloudy
4:55 PM 80.6 °F 81.1 °F 59.0 °F 48% 29.83 in 10.0 mi North - - N/A   Scattered Clouds
5:15 PM 82.4 °F 82.5 °F 59.0 °F 45% 29.82 in 10.0 mi North - - N/A   Partly Cloudy
5:35 PM 80.6 °F 81.1 °F 59.0 °F 48% 29.81 in 10.0 mi North - - N/A   Scattered Clouds
5:55 PM 80.6 °F 81.5 °F 60.8 °F 51% 29.81 in 10.0 mi North - - N/A   Scattered Clouds
6:15 PM 80.6 °F 81.1 °F 59.0 °F 48% 29.81 in 10.0 mi North - - N/A   Clear
6:35 PM 80.6 °F 81.5 °F 60.8 °F 51% 29.82 in 10.0 mi North - - N/A   Partly Cloudy
6:55 PM 80.6 °F 81.8 °F 62.6 °F 54% 29.82 in 10.0 mi North - - N/A   Scattered Clouds
7:15 PM 77.0 °F - 62.6 °F 61% 29.82 in 10.0 mi North - - N/A   Mostly Cloudy
7:35 PM 75.2 °F - 64.4 °F 69% 29.81 in 10.0 mi North - - N/A   Scattered Clouds
7:55 PM 75.2 °F - 64.4 °F 69% 29.81 in 10.0 mi North - - N/A   Partly Cloudy
8:15 PM 75.2 °F - 64.4 °F 69% 29.81 in 10.0 mi North - - N/A   Clear
8:35 PM 73.4 °F - 64.4 °F 73% 29.81 in 10.0 mi North - - N/A   Partly Cloudy
8:55 PM 73.4 °F - 64.4 °F 73% 29.81 in 10.0 mi North - - N/A   Scattered Clouds
9:15 PM 73.4 °F - 64.4 °F 73% 29.82 in 10.0 mi North - - N/A   Partly Cloudy
9:35 PM 73.4 °F - 64.4 °F 73% 29.82 in 10.0 mi North - - N/A   Clear
9:55 PM 71.6 °F - 64.4 °F 78% 29.82 in 10.0 mi North - - N/A   Partly Cloudy
10:15 PM 71.6 °F - 64.4 °F 78% 29.81 in 10.0 mi North - - N/A   Scattered Clouds
10:35 PM 71.6 °F - 64.4 °F 78% 29.82 in 10.0 mi North - - N/A   Scattered Clouds
10:55 PM 71.6 °F - 64.4 °F 78% 29.83 in 10.0 mi North - - N/A   Mostly Cloudy
11:15 PM 71.6 °F - 64.4 °F 78% 29.82 in 10.0 mi North - - N/A   Mostly Cloudy
11:35 PM 71.6 °F - 64.4 °F 78% 29.82 in 10.0 mi North - - N/A   Mostly Cloudy
11:55 PM 71.6 °F - 66.2 °F 83% 29.82 in 10.0 mi North - - N/A   Overcast